sat.trackr.live / text

‹ back to catalog

STARLINK-3191

NORAD 49770 · 2021-115AY

PAYLOAD ACTIVE UNKNOWN

§ Identity

Operator
Country
US
Launch date
2021-12-02
Launch site
AFETR
Launch vehicle
Mass (kg)
RCS (m²)

Purposes: comms

External: N2YO · Heavens-Above · Gunter

§ Orbital elements

Epoch: 2026-09-19T22:16:05.255904Z

Period
94.01 min
Inclination
53.1612°
Eccentricity
0.0001257
Mean motion
15.31695903 rev/d
Perigee alt
469.9 km
Apogee alt
471.6 km
Semi-major
6,848.9 km
B*
4.5307e-5
RAAN
336.4858°
Arg perigee
69.6098°
Mean anomaly
290.5038°
Rev number
26,626

§ Raw data

STARLINK-31911 49770U 21115AY  26262.92783861  .00001041  00000+0  45307-4 0  99972 49770  53.1612 336.4858 0001257  69.6098 290.5038 15.31695903266268

JSON: /api/v1/satellites/49770 · /tle

For live sub-satellite position, see the globe view (requires WebGL).

§ Visibility from observer

Set your observer location to see the next 7 days of passes ≥ 10°. The values pass through the URL so the page stays shareable.

No JS? Fill the form by hand. The geolocation button needs JavaScript.